STARLINK-2444 (48108 NORAD) Tracking and Keplerian Element Data

This shows tracking and keplerian element data for the satellite.

Feedback or suggestion? Click here.




ElementValue
Catalog48108
NameSTARLINK-2444
Epoch Orbit196
Epoch Day170.58334491
Epoch Year2021
RAAN341.9593
Inclination53.0495
Eccentricity0.0001377
Argument of Perigee72.4956
Mean Anonmoly168.5356
Mean Motion15.24821002
Decay Rate-0.01060939
L11 48108U 21027S 21170.58334491 -.01060939 00000-0 -46037-1 0 9992
L22 48108 53.0495 341.9593 0001377 72.4956 168.5356 15.24821002 1969

Live tracking and technical data element details for STARLINK-2444 (NORAD 48108). STARLINK-2444 can be tracked NOW for your location showing map with azimuth and elevation plus other details from your city location.

Track the satellite on the map from your city or location and see movement details for azimuth, elevation, latitude, longitude, range, height, and movement on the map or in text.







IsCatalogInMostPopularTable: catalog: 48108, numindb: 34
Update: records affected: 1



GetName: 48108 STARLINK-2444

Hit Count: updated at: Mon, 21 Jun 2021 05:02:18 GMT